Regional Weather Roundup
Issued by NWS Albany, NY

Home | Current Version | Previous Version | Graphics & Text | Print | Product List | Glossary Off
Versions: 1 2 3 4 5 6 7 8 9 10 11 12 13 14 15 16 17 18 19 20 21 22 23 24 25 26 27 28 29 30 31 32 33 34 35 36 37 38 39 40 41 42 43 44 45 46 47 48 49 50

750
ASUS41 KALY 220010
RWRALY

NEW YORK STATE HOURLY WEATHER ROUNDUP
NATIONAL WEATHER SERVICE ALBANY NY
700 PM EST SAT JAN 21 2017

NOTE: "FAIR" INDICATES FEW OR NO CLOUDS BELOW 12,000 FEET WITH NO
SIGNIFICANT WEATHER AND/OR NO OBSTRUCTIONS TO VISIBILITY.

NYZ032-033-038>043-046>054-057>066-NYZ062>081-082-084-220100-
EAST


CITY           SKY/WX    TMP DP  RH WIND       PRES   REMARKS
ALBANY         CLOUDY    41  37  86 CALM      29.78F
GLENS FALLS    CLEAR     34  31  88 CALM      29.77R FOG
POUGHKEEPSIE   CLOUDY    44  41  89 CALM      29.78S
NEWBURGH       CLOUDY    45  45 100 SW9       29.81R
MONTGOMERY     FOG       45  44  97 SW9       29.79R VSB 1/2
WHITE PLAINS   CLEAR     44  41  89 CALM      29.80R
ISLIP          FOG       43  43 100 W8        29.82R VSB 1/4
NEW YORK CITY  MOCLDY    48  44  86 SW5       29.81S
CENTRAL PARK   MOCLDY    45  44  97 W6        29.84R FOG
$$

NYZ005>009-017-018-044>046-055-056-220100-
CENTRAL


CITY           SKY/WX    TMP DP  RH WIND       PRES   REMARKS
FULTON         CLOUDY    45  43  93 E3        29.75S FOG
SYRACUSE       CLOUDY    45  43  93 E8        29.75S
ROME           CLOUDY    43  42  97 E7        29.78S
ELMIRA         CLOUDY    41  39  93 CALM      29.76R
BINGHAMTON     CLOUDY    43  43 100 SE3       29.77R FOG
MONTICELLO     CLOUDY    41  39  93 CALM      29.80S VSB 1/2
$$

NYZ026>034-041>043-087-220100-
NORTH


CITY           SKY/WX    TMP DP  RH WIND       PRES   REMARKS
WATERTOWN      FOG       38  38 100 NE6       29.75F VSB 1/4 WCI  33
FORT DRUM      NOT AVBL
OGDENSBURG     CLOUDY    38  37  99 CALM      29.78S FOG
MASSENA        CLOUDY    39  38  96 CALM      29.80S FOG
SARANAC LAKE   CLOUDY    37  36  96 SW6       29.73S FOG     WCI  32
PLATTSBURGH    CLOUDY    39  36  89 N6        29.77S FOG     WCI  35
$$

NYZ001>004-010>016-019>021-085-220100-
WEST


CITY           SKY/WX    TMP DP  RH WIND       PRES   REMARKS
NIAGARA FALLS  FOG       47  44  90 N3        29.69R VSB 1/4
BUFFALO        CLOUDY    52  47  83 N5        29.69R
DUNKIRK        CLOUDY    52  48  86 W5        29.69R
JAMESTOWN        N/A     55  48  76 SW6       29.71R
WELLSVILLE     CLOUDY    51  46  83 SE5       29.75R
ROCHESTER      CLOUDY    47  44  90 E6        29.72R
PENN YAN       CLOUDY    48  42  80 CALM      29.74R
$$

             KEY
       WCI = WIND CHILL INDEX
       VSB = VISIBILITY
       HX  = HEAT INDEX
$$




USA.gov is the U.S. government's official web portal to all federal, state and local government web resources and services.